Weather WX

World > North America > United States > North Dakota

Wilton, North Dakota Regional Weather

Lat: 47.16N, Lon: 100.78W
Wx Zone: NDZ021
Warning FLW WEATHER ALERT - (More Info. Click Here) Warning
Feedback

Wilton, ND Regional Weather

Expires:201907181000;;243897
ASUS43 KBIS 180910
RWRND 

NORTH DAKOTA REGIONAL WEATHER ROUNDUP
NATIONAL WEATHER SERVICE BISMARCK ND
400 AM CDT THU JUL 18 2019

NOTE: "FAIR" INDICATES FEW OR NO CLOUDS BELOW 12,000 FEET WITH NO
SIGNIFICANT WEATHER AND/OR OBSTRUCTIONS TO VISIBILITY.



NDZ018>021-031>035-040>046-181000-
SOUTHWEST NORTH DAKOTA
  
CITY           SKY/WX    TMP DP  RH WIND       PRES   REMARKS
BISMARCK       MOCLDY    63  60  90 E5        29.67F                  
DICKINSON      PTCLDY    61  59  93 S7        29.70F                  
GARRISON         N/A     60  58  92 S3        29.65S                  
HETTINGER ARPT CLOUDY    60  58  92 MISG      29.75F                  
$$
 

SKY/WX - Weather  TMP - Temperature  DP - Dew Point  RH - Relative Humidity
WIND - Wind Direction/Speed PRES - Barometric Pressure VSB - Visibility
WCI - Wind Chill Index E13G22 Wind - East Wind 13 mph/Gusts of 22 mph